Location: Hamlin Beach State Park
(43.3614°N, 77.9586°W)
Time: 20:22:56
(UTC-04:00)

Tiangong 2 - Visible Passes

Search period start: 22 July 2018 00:00
Search period end: 01 August 2018 00:00
Orbit: 386 x 394 km, 42.8° (Epoch: 22 July)

Date Brightness Start Highest point End Pass type
(mag) Time Alt. Az. Time Alt. Az. Time Alt. Az.
22 Jul 1.7 21:19:16 10° W 21:22:20 44° SSW 21:25:23 10° SE visible
22 Jul 3.8 22:57:28 10° WSW 22:57:47 11° SW 22:57:47 11° SW visible
23 Jul 3.0 21:58:51 10° WSW 22:01:11 19° SSW 22:02:33 15° S visible
25 Jul 3.7 21:41:31 10° SW 21:42:18 11° SW 21:43:06 10° SSW visible
